When you browse on this site, cookies collect data to enhance your experience and personalize the content and advertising you see.
Visit our Privacy Policy to learn more. By continuing to use the site, you agree to this use of cookies and data.
  • In Romania
  • List of Countries
  • For 7 days
  • Water Temperature
  • Weather Map
  • Weather Widgets
  • user-avatar
    Login

    Hourly Weather Kirkuk

    Today, 24 August, Saturday

    Time Temperature Precipitation Wind Pressure Humidity
    00:00 +31°C° 0 mm 3 mps 726 mmHg 20%
    01:00 +32°C° 0 mm 4 mps 726 mmHg 20%
    02:00 +32°C° 0 mm 4 mps 726 mmHg 20%
    03:00 +32°C° 0 mm 4 mps 726 mmHg 20%
    04:00 +32°C° 0 mm 4 mps 726 mmHg 20%
    05:00 +31°C° 0 mm 3 mps 726 mmHg 20%
    06:00 +31°C° 0 mm 3 mps 727 mmHg 20%
    07:00 +35°C° 0 mm 3 mps 727 mmHg 17%
    08:00 +38°C° 0 mm 4 mps 727 mmHg 13%
    09:00 +43°C° 0 mm 4 mps 728 mmHg 10%
    10:00 +44°C° 0 mm 4 mps 728 mmHg 10%
    11:00 +46°C° 0 mm 5 mps 727 mmHg 10%
    12:00 +47°C° 0 mm 5 mps 727 mmHg 10%
    13:00 +47°C° 0 mm 5 mps 727 mmHg 10%
    14:00 +48°C° 0 mm 5 mps 726 mmHg 10%
    15:00 +48°C° 0 mm 5 mps 726 mmHg 10%
    16:00 +47°C° 0 mm 5 mps 726 mmHg 11%
    17:00 +45°C° 0 mm 4 mps 726 mmHg 12%
    18:00 +44°C° 0 mm 3 mps 726 mmHg 12%
    19:00 +42°C° 0 mm 3 mps 726 mmHg 14%
    20:00 +39°C° 0 mm 3 mps 726 mmHg 16%
    21:00 +37°C° 0 mm 3 mps 726 mmHg 17%
    22:00 +36°C° 0 mm 3 mps 726 mmHg 18%
    23:00 +35°C° 0 mm 3 mps 726 mmHg 19%

    Tomorrow, 25 August, Sunday

    Time Temperature Precipitation Wind Pressure Humidity
    00:00 +35°C° 0 mm 3 mps 725 mmHg 20%
    01:00 +35°C° 0 mm 3 mps 725 mmHg 20%
    02:00 +35°C° 0 mm 3 mps 725 mmHg 20%
    03:00 +34°C° 0 mm 3 mps 725 mmHg 20%
    04:00 +34°C° 0 mm 3 mps 725 mmHg 20%
    05:00 +34°C° 0 mm 3 mps 725 mmHg 20%
    06:00 +34°C° 0 mm 3 mps 725 mmHg 20%
    07:00 +37°C° 0 mm 2 mps 726 mmHg 17%
    08:00 +40°C° 0 mm 2 mps 726 mmHg 14%
    09:00 +43°C° 0 mm 2 mps 726 mmHg 11%
    10:00 +45°C° 0 mm 2 mps 726 mmHg 10%
    11:00 +47°C° 0 mm 2 mps 726 mmHg 10%
    12:00 +48°C° 0 mm 2 mps 726 mmHg 9%
    13:00 +48°C° 0 mm 3 mps 725 mmHg 8%
    14:00 +50°C° 0 mm 4 mps 725 mmHg 8%
    15:00 +50°C° 0 mm 5 mps 725 mmHg 8%
    16:00 +49°C° 0 mm 4 mps 724 mmHg 8%
    17:00 +47°C° 0 mm 3 mps 724 mmHg 9%
    18:00 +45°C° 0 mm 3 mps 724 mmHg 10%
    19:00 +42°C° 0 mm 2 mps 724 mmHg 11%
    20:00 +39°C° 0 mm 2 mps 724 mmHg 13%
    21:00 +37°C° 0 mm 2 mps 724 mmHg 15%
    22:00 +36°C° 0 mm 2 mps 724 mmHg 16%
    23:00 +34°C° 0 mm 1 mps 724 mmHg 16%

    Day after tomorrow, 26 August, Monday

    Time Temperature Precipitation Wind Pressure Humidity
    00:00 +34°C° 0 mm 1 mps 724 mmHg 17%
    01:00 +33°C° 0 mm 1 mps 724 mmHg 18%
    02:00 +32°C° 0 mm 1 mps 724 mmHg 18%
    03:00 +32°C° 0 mm 2 mps 724 mmHg 19%
    04:00 +32°C° 0 mm 2 mps 724 mmHg 19%
    05:00 +32°C° 0 mm 2 mps 724 mmHg 18%
    06:00 +32°C° 0 mm 2 mps 724 mmHg 18%
    07:00 +37°C° 0 mm 2 mps 725 mmHg 15%
    08:00 +40°C° 0 mm 1 mps 725 mmHg 13%
    09:00 +44°C° 0 mm 1 mps 726 mmHg 10%
    10:00 +46°C° 0 mm 2 mps 725 mmHg 8%
    11:00 +48°C° 0 mm 3 mps 725 mmHg 7%
    12:00 +50°C° 0 mm 4 mps 725 mmHg 6%
    13:00 +50°C° 0 mm 5 mps 725 mmHg 6%
    14:00 +52°C° 0 mm 6 mps 724 mmHg 6%
    15:00 +52°C° 0 mm 7 mps 724 mmHg 6%
    16:00 +51°C° 0 mm 6 mps 724 mmHg 7%
    17:00 +48°C° 0 mm 5 mps 724 mmHg 8%
    18:00 +47°C° 0 mm 5 mps 724 mmHg 9%
    19:00 +44°C° 0 mm 4 mps 724 mmHg 10%
    20:00 +42°C° 0 mm 4 mps 724 mmHg 12%
    21:00 +38°C° 0 mm 3 mps 725 mmHg 13%
    22:00 +38°C° 0 mm 3 mps 725 mmHg 14%
    23:00 +37°C° 0 mm 3 mps 725 mmHg 15%

    27 August, Tuesday

    Time Temperature Precipitation Wind Pressure Humidity
    00:00 +36°C° 0 mm 3 mps 725 mmHg 16%
    01:00 +36°C° 0 mm 3 mps 724 mmHg 17%
    02:00 +36°C° 0 mm 3 mps 724 mmHg 17%
    03:00 +35°C° 0 mm 4 mps 724 mmHg 17%
    04:00 +36°C° 0 mm 4 mps 725 mmHg 17%
    05:00 +36°C° 0 mm 4 mps 725 mmHg 16%
    06:00 +36°C° 0 mm 4 mps 725 mmHg 16%
    07:00 +40°C° 0 mm 4 mps 725 mmHg 13%
    08:00 +44°C° 0 mm 4 mps 726 mmHg 11%
    09:00 +48°C° 0 mm 4 mps 726 mmHg 9%
    10:00 +49°C° 0 mm 4 mps 726 mmHg 8%
    11:00 +49°C° 0 mm 4 mps 726 mmHg 7%
    12:00 +50°C° 0 mm 4 mps 725 mmHg 7%
    13:00 +50°C° 0 mm 5 mps 725 mmHg 7%
    14:00 +52°C° 0 mm 6 mps 725 mmHg 7%
    15:00 +52°C° 0 mm 7 mps 724 mmHg 7%
    16:00 +51°C° 0 mm 6 mps 724 mmHg 8%
    17:00 +48°C° 0 mm 5 mps 724 mmHg 8%
    18:00 +47°C° 0 mm 4 mps 724 mmHg 9%
    19:00 +44°C° 0 mm 4 mps 724 mmHg 11%
    20:00 +42°C° 0 mm 4 mps 724 mmHg 12%
    21:00 +40°C° 0 mm 4 mps 725 mmHg 14%
    22:00 +38°C° 0 mm 4 mps 725 mmHg 15%
    23:00 +37°C° 0 mm 4 mps 725 mmHg 16%

    28 August, Wednesday

    Time Temperature Precipitation Wind Pressure Humidity
    00:00 +36°C° 0 mm 4 mps 725 mmHg 17%
    01:00 +36°C° 0 mm 4 mps 724 mmHg 17%
    02:00 +35°C° 0 mm 4 mps 724 mmHg 17%
    03:00 +35°C° 0 mm 4 mps 724 mmHg 17%
    04:00 +35°C° 0 mm 4 mps 724 mmHg 17%
    05:00 +35°C° 0 mm 3 mps 724 mmHg 17%
    06:00 +34°C° 0 mm 3 mps 725 mmHg 17%
    07:00 +38°C° 0 mm 3 mps 725 mmHg 15%
    08:00 +42°C° 0 mm 3 mps 725 mmHg 12%
    09:00 +45°C° 0 mm 4 mps 725 mmHg 9%
    10:00 +47°C° 0 mm 4 mps 725 mmHg 9%
    11:00 +48°C° 0 mm 4 mps 725 mmHg 8%
    12:00 +49°C° 0 mm 4 mps 725 mmHg 8%
    13:00 +49°C° 0 mm 4 mps 725 mmHg 8%
    14:00 +50°C° 0 mm 5 mps 724 mmHg 7%
    15:00 +50°C° 0 mm 5 mps 724 mmHg 7%
    16:00 +49°C° 0 mm 4 mps 724 mmHg 8%
    17:00 +47°C° 0 mm 4 mps 724 mmHg 9%
    18:00 +45°C° 0 mm 3 mps 724 mmHg 10%
    19:00 +43°C° 0 mm 3 mps 724 mmHg 12%
    20:00 +40°C° 0 mm 3 mps 724 mmHg 14%
    21:00 +37°C° 0 mm 3 mps 725 mmHg 16%
    22:00 +37°C° 0 mm 3 mps 725 mmHg 16%
    23:00 +36°C° 0 mm 3 mps 725 mmHg 17%

    29 August, Thursday

    Time Temperature Precipitation Wind Pressure Humidity
    00:00 +36°C° 0 mm 3 mps 725 mmHg 18%
    01:00 +36°C° 0 mm 3 mps 725 mmHg 18%
    02:00 +36°C° 0 mm 3 mps 725 mmHg 18%
    03:00 +36°C° 0 mm 4 mps 725 mmHg 18%
    04:00 +35°C° 0 mm 3 mps 725 mmHg 18%
    05:00 +35°C° 0 mm 3 mps 725 mmHg 18%
    06:00 +35°C° 0 mm 3 mps 725 mmHg 18%
    07:00 +38°C° 0 mm 3 mps 725 mmHg 16%
    08:00 +43°C° 0 mm 3 mps 726 mmHg 13%
    09:00 +46°C° 0 mm 3 mps 726 mmHg 10%
    10:00 +47°C° 0 mm 3 mps 726 mmHg 9%
    11:00 +48°C° 0 mm 3 mps 726 mmHg 8%
    12:00 +49°C° 0 mm 2 mps 725 mmHg 7%
    13:00 +51°C° 0 mm 3 mps 725 mmHg 7%
    14:00 +51°C° 0 mm 4 mps 725 mmHg 7%
    15:00 +52°C° 0 mm 5 mps 724 mmHg 7%
    16:00 +50°C° 0 mm 5 mps 724 mmHg 7%
    17:00 +48°C° 0 mm 4 mps 724 mmHg 8%
    18:00 +47°C° 0 mm 4 mps 724 mmHg 9%
    19:00 +43°C° 0 mm 3 mps 724 mmHg 11%
    20:00 +39°C° 0 mm 2 mps 724 mmHg 13%
    21:00 +36°C° 0 mm 1 mps 724 mmHg 15%
    22:00 +36°C° 0 mm 1 mps 724 mmHg 15%
    23:00 +36°C° 0 mm 2 mps 724 mmHg 15%
    Show more